Location: Unspecified
(0.0000°N, 0.0000°E)
Time: 15:35:18
(UTC+02:00)

deb Ariane - Visible Passes

Search period start: 21 October 2014 00:00
Search period end: 30 October 2014 23:00
Orbit: 142 x 14171 km, 7.5° (Epoch: 20 October)

Date Brightness Start Highest point End Pass type
(mag) Time Alt. Az. Time Alt. Az. Time Alt. Az.
21 Oct 9.7 00:25:23 38° E 00:25:23 38° E 01:52:57 10° E visible
21 Oct 9.5 04:45:59 45° W 06:23:35 86° NNW 07:24:42 10° E visible
21 Oct 5.9 21:03:33 10° WSW 21:09:06 60° S 21:24:40 22° ESE visible
22 Oct 8.5 01:39:00 10° WSW 02:27:26 80° SE 04:44:25 10° E visible
22 Oct 9.0 06:50:09 10° W 09:15:01 76° N 09:35:50 10° ENE visible
22 Oct 7.4 23:08:33 10° WSW 23:21:22 72° S 01:17:14 10° E visible
23 Oct 9.4 04:25:32 52° W 05:45:29 87° NNW 07:01:32 10° E visible
23 Oct 5.6 20:38:09 10° WSW 20:42:44 55° S 20:59:49 14° E visible
24 Oct 8.2 01:11:09 10° WSW 02:00:50 72° ESE 04:09:59 10° E visible
24 Oct 9.3 06:19:34 16° W 08:39:01 78° N 09:05:40 10° ENE visible
24 Oct 7.0 22:34:57 10° WSW 22:44:57 68° S 00:11:25 10° E visible
25 Oct 9.2 03:51:25 64° W 04:39:27 89° NNW 06:22:24 10° E visible
25 Oct 5.0 19:58:16 10° WSW 20:01:38 47° S 20:14:39 10° ESE visible
26 Oct 7.9 00:28:34 10° WSW 01:20:17 57° E 02:13:58 10° E visible
26 Oct 9.7 04:37:43 28° W 06:40:29 80° N 07:19:56 10° ENE visible
26 Oct 6.4 20:46:30 10° WSW 20:53:36 63° S 21:04:32 37° ESE visible
27 Oct 8.8 01:19:54 10° W 02:13:12 87° SSE 04:25:04 10° E visible
27 Oct 7.5 22:30:48 10° WSW 23:25:03 37° E 00:45:49 10° E visible
28 Oct 9.4 03:41:06 46° W 05:07:34 84° NNW 06:17:00 10° E visible
28 Oct 5.6 19:42:31 10° WSW 19:47:02 52° S 20:02:37 15° E visible
29 Oct 8.2 00:11:36 10° WSW 00:59:21 71° E 03:04:40 10° E visible
29 Oct 9.4 05:14:38 17° W 07:29:11 78° N 07:58:38 10° E visible
29 Oct 6.7 21:17:14 10° WSW 21:25:40 66° S 22:29:44 10° E visible
30 Oct 9.0 02:28:54 73° W 02:54:09 89° NNW 04:53:50 10° E visible
30 Oct 7.4 22:47:30 10° WSW 22:58:36 69° SW 22:58:36 69° SW visible
